Location: Wald
(31.7579°N, 86.6655°W)
Time: 12:26:15
(UTC+00:00)

Meteor 1-28 Rocket - Pass Details

Date: 14 July 2020
Orbit: 505 x 522 km, 97.3° (Epoch: 09 August)

Event Time Altitude Azimuth Distance (km) Brightness Sun altitude
Exits shadow 08:51:06 63° 144° (SE) 566 3.2 -21.7°
Maximum altitude 08:51:36 79° 78° (ENE) 521 3.1 -21.6°
Drops below altitude 10° 08:55:19 10° 352° (N) 1,728 6.3 -21.0°
Sets 08:57:25 0° 351° (N) 2,619 7.3 -20.7°
